Home > Weather > Itzehoe > Past weeks

Flag for Germany Weather for the Past 2 Weeks in Itzehoe, Schleswig-Holstein, Germany

Now
63 °F

Mild.


Feels Like: 63 °F
Forecast: 44 / 70 °F
Wind: 7 mph from East

Location: Hohn

Current Time: May 5, 2016 at 6:13:08 PM

Latest Report: May 5, 2016 at 5:20 PM


Visibility: N/A

Pressure: 30.30 "Hg

Humidity: 32%

Dew Point: 32 °F

Location of ItzehoeLocation

Historic Weather in Itzehoe — Graph

°F

Itzehoe Temperature Yesterday

Maximum temperature yesterday: 57 °F (at 2:20 PM)
Minimum temperature yesterday: 36 °F (at 3:20 AM)
Average temperature yesterday: 47 °F

High & Low Weather Summary for the Past Weeks

 TemperatureHumidityPressure
High64 °F (May 2, 2:20 PM)100% (Apr 21, 4:20 AM)30.42 "Hg (Apr 21, 4:20 AM)
Low30 °F (Apr 23, 4:20 AM)27% (May 5, 2:20 PM)29.36 "Hg (Apr 26, 4:20 AM)
Average43 °F78%29.97 "Hg
* Reported Apr 20 4:20 PM — May 5 4:20 PM, Itzehoe, Weather by CustomWeather, © 2016

Note: Actual official high and low records may vary slightly from our data, if they occured in-between our weather recording intervals... More about our weather records

Advertising

Itzehoe Weather History for the Previous 24 Hours

Scroll right to see more
 ConditionsComfort  
Time TempWeatherWind HumidityBarometerVisibility
4:20 PM
Thu, May 5
63 °FMild.8 mph32%30.30 "HgN/A
3:20 PM63 °FMild.8 mph30%30.33 "HgN/A
2:20 PM63 °FMild.6 mph27%30.33 "HgN/A
1:20 PM61 °FRefreshingly cool.7 mph29%30.36 "Hg6 mi
12:20 PM59 °FRefreshingly cool.5 mph29%30.36 "Hg4 mi
11:20 AM57 °FRefreshingly cool.6 mph36%30.39 "Hg3 mi
10:20 AM55 °FRefreshingly cool.6 mph44%30.39 "Hg3 mi
9:20 AM54 °FCool.6 mph51%30.39 "Hg3 mi
8:20 AM50 °FCool.2 mph62%30.39 "Hg3 mi
7:20 AM43 °FQuite cool.3 mph87%30.39 "Hg2 mi
6:20 AM36 °FChilly.1 mph93%30.39 "Hg3 mi
5:20 AM34 °FChilly.1 mph100%30.39 "Hg0 mi
4:20 AM36 °FChilly.2 mph93%30.39 "Hg1 mi
3:20 AM37 °FChilly.1 mph93%30.39 "Hg1 mi
2:20 AM37 °FChilly.1 mph93%30.39 "Hg1 mi
1:20 AM39 °FChilly.No wind93%30.39 "Hg3 mi
12:20 AM39 °FChilly.No wind93%30.39 "Hg4 mi
11:20 PM
Wed, May 4
43 °FQuite cool.1 mph87%30.42 "Hg4 mi
10:20 PM45 °FQuite cool.2 mph81%30.39 "Hg4 mi
9:20 PM48 °FCool.5 mph71%30.39 "Hg4 mi
8:20 PM52 °FCool.8 mph62%30.39 "Hg6 mi
7:20 PM57 °FRefreshingly cool.8 mph44%30.36 "HgN/A
6:20 PM57 °FRefreshingly cool.7 mph44%30.39 "Hg6 mi
Weather by CustomWeather, © 2016

See weather overviewHow to use our weather pages